This is the latest recevied weather packets stored in our database for station/object F8BJE-13. If no packets are shown the sender has not sent any weather packets the latest 10 day(s).
| Time | Temp. | Humidity | Pressure | Rain* | Wind** | Luminosity | Snow |
|---|---|---|---|---|---|---|---|
| 1787646603 | 18.89° C | 76% | 1015 hPa | 0 mm | - | - | - |
| 1787644803 | 17.78° C | 80% | 1014.9 hPa | 0 mm | - | - | - |
| 1787643003 | 16.67° C | 85% | 1014.5 hPa | 0 mm | - | - | - |
| 1787641203 | 16.11° C | 86% | 1014.3 hPa | 0 mm | - | - | - |
| 1787639403 | 16.11° C | 91% | 1013.8 hPa | 0 mm | - | - | - |
| 1787637603 | 16.11° C | 94% | 1014.2 hPa | 0 mm | - | - | - |
| 1787635803 | 15.56° C | 94% | 1013.7 hPa | 0 mm | - | - | - |
| 1787634003 | 15.56° C | 94% | 1013.3 hPa | 0 mm | - | - | - |
| 1787632203 | 15.56° C | 94% | 1013.4 hPa | 0 mm | - | - | - |
| 1787630403 | 15.56° C | 95% | 1013.5 hPa | 0 mm | - | - | - |
| 1787628603 | 15.56° C | 96% | 1013.2 hPa | 0 mm | - | - | - |
| 1787626803 | 15.56° C | 96% | 1013.4 hPa | 0 mm | - | - | - |
| 1787625003 | 15.56° C | 96% | 1013.2 hPa | 0 mm | - | - | - |
| 1787623203 | 15.56° C | 96% | 1013.3 hPa | 0 mm | - | - | - |
| 1787621403 | 16.11° C | 96% | 1013.2 hPa | 0 mm | - | - | - |
| 1787619603 | 15.56° C | 96% | 1013 hPa | 0 mm | - | - | - |
| 1787617803 | 15.56° C | 97% | 1013 hPa | 0 mm | - | - | - |
| 1787616003 | 15.56° C | 98% | 1012.9 hPa | 0 mm | - | - | - |
| 1787614203 | 16.11° C | 98% | 1012.7 hPa | 0 mm | - | - | - |
| 1787612403 | 16.11° C | 98% | 1012.5 hPa | 0 mm | - | - | - |
| 1787610603 | 16.11° C | 97% | 1012.6 hPa | 0 mm | - | - | - |
| 1787608803 | 16.11° C | 96% | 1012.8 hPa | 0.25 mm | - | - | - |
| 1787607003 | 16.11° C | 94% | 1011.4 hPa | 0.25 mm | - | - | - |
| 1787605203 | 16.11° C | 94% | 1013.5 hPa | 0 mm | - | - | - |
| 1787603404 | 16.11° C | 93% | 1013.8 hPa | 0.51 mm | - | - | - |
* Rain latest hour (hover to see other rain measurements)
** Current wind speed in m/s (hover to see current wind gust speed)